DW5204 Weather Reports


time (UTC)temp
C
wind
direction
speed
KPH
gust
KPH
rain 1hr
cm
rain 24hr
cm
rain mn
cm
humidity
%
barometer
mb
20260504080146 18 237 12.9 16.1 0.00 0.00 0.00 59 1013.7
20260504070114 19 163 8.0 11.3 0.00 0.00 0.00 57 1014.2
20260504050502 20 170 6.4 8.0 0.00 0.00 0.00 52 1015.6
20260504045959 20 87 4.8 4.8 0.00 0.00 0.00 52 1015.7
20260504045455 20 200 9.7 11.3 0.00 0.00 0.00 51 1015.6
20260504044951 20 180 8.0 9.7 0.00 0.00 0.00 51 1015.6
20260504044449 21 210 14.5 20.9 0.00 0.00 0.00 50 1015.5
20260504043946 21 181 8.0 9.7 0.00 0.00 0.00 50 1015.8
20260504043443 21 201 11.3 12.9 0.00 0.00 0.00 50 1015.7
20260504042941 21 229 6.4 8.0 0.00 0.00 0.00 49 1015.8
20260504042437 21 177 8.0 11.3 0.00 0.00 0.00 49 1016.0
20260504041934 21 188 4.8 4.8 0.00 0.00 0.00 49 1015.8
20260504041430 21 215 4.8 8.0 0.00 0.00 0.00 49 1016.0
20260504040926 21 199 6.4 9.7 0.00 0.00 0.00 49 1016.1
20260504040424 21 141 9.7 12.9 0.00 0.00 0.00 48 1016.0
20260504035920 21 192 4.8 8.0 0.00 0.00 0.00 48 1016.0
20260504035417 21 183 4.8 4.8 0.00 0.00 0.00 48 1015.8
20260504034914 21 200 6.4 9.7 0.00 0.00 0.00 48 1016.1
20260504034412 21 197 4.8 4.8 0.00 0.00 0.00 47 1016.0
20260504033908 21 195 8.0 11.3 0.00 0.00 0.00 47 1015.8
20260504033406 22 207 6.4 9.7 0.00 0.00 0.00 47 1015.9
20260504032903 22 184 6.4 9.7 0.00 0.00 0.00 46 1015.7
20260504032400 22 92 8.0 9.7 0.00 0.00 0.00 46 1015.6
20260504031856 22 164 11.3 16.1 0.00 0.00 0.00 46 1015.8
20260504031353 22 197 8.0 9.7 0.00 0.00 0.00 46 1016.0
20260504030850 22 168 16.1 22.5 0.00 0.00 0.00 45 1015.9
20260504030347 22 165 6.4 8.0 0.00 0.00 0.00 45 1015.7
20260504025843 22 202 11.3 12.9 0.00 0.00 0.00 45 1015.6
20260504025340 22 179 8.0 11.3 0.00 0.00 0.00 44 1015.4
20260504024837 22 224 6.4 8.0 0.00 0.00 0.00 44 1015.8
20260504024333 22 118 11.3 16.1 0.00 0.00 0.00 44 1015.6
20260504023830 23 205 6.4 9.7 0.00 0.00 0.00 43 1015.8
20260504023327 23 104 8.0 11.3 0.00 0.00 0.00 43 1015.9
20260504022822 23 183 4.8 8.0 0.00 0.00 0.00 43 1015.8
20260504022320 23 231 8.0 11.3 0.00 0.00 0.00 42 1015.6
20260504021816 23 129 8.0 11.3 0.00 0.00 0.00 42 1015.4
20260504021314 23 197 9.7 14.5 0.00 0.00 0.00 41 1015.5
20260504020811 23 187 8.0 11.3 0.00 0.00 0.00 41 1015.6
20260504020307 23 220 9.7 12.9 0.00 0.00 0.00 40 1015.6
20260504015803 23 211 4.8 4.8 0.00 0.00 0.00 40 1015.3
20260504015300 23 90 6.4 8.0 0.00 0.00 0.00 39 1015.4
20260504014755 23 195 9.7 12.9 0.00 0.00 0.00 39 1015.5
20260504014252 23 157 4.8 4.8 0.00 0.00 0.00 38 1015.3
20260504013750 24 208 8.0 11.3 0.00 0.00 0.00 38 1015.2
20260504013247 24 197 9.7 11.3 0.00 0.00 0.00 38 1015.4
20260504012743 24 156 9.7 11.3 0.00 0.00 0.00 37 1015.2
20260504012242 24 257 9.7 11.3 0.00 0.00 0.00 37 1015.0
20260504011738 25 194 9.7 11.3 0.00 0.00 0.00 37 1015.4
20260504011235 25 176 8.0 9.7 0.00 0.00 0.00 37 1015.3
20260504010731 25 209 9.7 14.5 0.00 0.00 0.00 37 1015.3
20260504010227 25 209 9.7 11.3 0.00 0.00 0.00 36 1015.2
20260504005724 25 186 11.3 12.9 0.00 0.00 0.00 36 1015.0
20260504005221 25 219 6.4 8.0 0.00 0.00 0.00 37 1015.1
20260504004718 25 165 9.7 22.5 0.00 0.00 0.00 36 1015.3
20260504004215 25 182 11.3 16.1 0.00 0.00 0.00 36 1015.1
20260504003712 26 144 4.8 9.7 0.00 0.00 0.00 36 1015.2
20260504003209 26 242 14.5 16.1 0.00 0.00 0.00 35 1015.4
20260504002705 26 174 11.3 14.5 0.00 0.00 0.00 35 1015.3
20260504002202 27 184 12.9 16.1 0.00 0.00 0.00 34 1015.3
20260504001655 27 211 6.4 11.3 0.00 0.00 0.00 34 1015.3
20260504001151 27 190 4.8 4.8 0.00 0.00 0.00 33 1015.2
20260504000648 27 217 16.1 17.7 0.00 0.00 0.00 31 1015.3
20260504000145 27 204 20.9 27.4 0.00 0.00 0.00 31 1015.2
20260503235643 27 179 4.8 8.0 0.00 0.00 0.00 31 1015.3
20260503235140 28 169 11.3 17.7 0.00 0.00 0.00 30 1015.6
20260503234638 28 232 6.4 9.7 0.00 0.00 0.00 32 1015.4
20260503234135 27 214 11.3 14.5 0.00 0.00 0.00 32 1015.5
20260503233632 28 122 11.3 12.9 0.00 0.00 0.00 31 1015.5
20260503233128 28 257 9.7 12.9 0.00 0.00 0.00 31 1015.5
20260503232625 28 155 6.4 9.7 0.00 0.00 0.00 31 1015.6
20260503232123 28 221 11.3 14.5 0.00 0.00 0.00 31 1015.7
20260503231620 28 207 17.7 24.1 0.00 0.00 0.00 30 1015.7
20260503231116 28 221 12.9 14.5 0.00 0.00 0.00 30 1015.8
20260503230613 29 117 9.7 11.3 0.00 0.00 0.00 30 1015.8
20260503230110 28 213 9.7 12.9 0.00 0.00 0.00 29 1015.7
20260503225608 29 170 14.5 17.7 0.00 0.00 0.00 28 1015.7
20260503225102 29 164 3.2 4.8 0.00 0.00 0.00 29 1015.5
20260503224600 29 134 8.0 12.9 0.00 0.00 0.00 29 1015.8
20260503224058 30 201 8.0 9.7 0.00 0.00 0.00 29 1015.7
20260503223555 29 211 11.3 14.5 0.00 0.00 0.00 28 1015.7
20260503223050 30 248 9.7 12.9 0.00 0.00 0.00 28 1016.0
20260503222549 30 211 8.0 12.9 0.00 0.00 0.00 28 1015.8
20260503222047 30 52 8.0 11.3 0.00 0.00 0.00 28 1015.9
20260503221544 30 65 8.0 9.7 0.00 0.00 0.00 28 1016.0
20260503221042 30 192 8.0 9.7 0.00 0.00 0.00 28 1015.9
20260503220538 30 201 9.7 12.9 0.00 0.00 0.00 28 1016.1
20260503220035 30 242 8.0 14.5 0.00 0.00 0.00 29 1016.2
20260503215532 30 212 12.9 20.9 0.00 0.00 0.00 29 1016.1
20260503215029 30 119 8.0 11.3 0.00 0.00 0.00 28 1016.3
20260503214527 30 103 3.2 4.8 0.00 0.00 0.00 29 1016.1
20260503214023 30 87 9.7 12.9 0.00 0.00 0.00 28 1016.5
20260503213522 30 160 8.0 11.3 0.00 0.00 0.00 29 1016.6
20260503213018 30 239 8.0 12.9 0.00 0.00 0.00 28 1016.6
20260503212516 30 224 14.5 17.7 0.00 0.00 0.00 28 1016.5
20260503212013 31 190 14.5 22.5 0.00 0.00 0.00 28 1016.6
20260503211510 31 216 8.0 9.7 0.00 0.00 0.00 27 1016.8
20260503211005 31 294 8.0 12.9 0.00 0.00 0.00 28 1016.7
20260503210502 31 74 3.2 3.2 0.00 0.00 0.00 28 1016.9
20260503210002 30 122 4.8 9.7 0.00 0.00 0.00 29 1017.0
20260503205500 30 110 9.7 12.9 0.00 0.00 0.00 28 1017.2
20260503204956 31 83 6.4 11.3 0.00 0.00 0.00 29 1017.3
20260503204453 31 180 4.8 8.0 0.00 0.00 0.00 29 1017.4
20260503203950 30 192 11.3 12.9 0.00 0.00 0.00 29 1017.6
20260503203448 30 212 8.0 9.7 0.00 0.00 0.00 29 1017.3
20260503202944 30 117 4.8 8.0 0.00 0.00 0.00 30 1017.6
20260503202442 29 235 4.8 9.7 0.00 0.00 0.00 30 1017.6
20260503201941 31 277 8.0 14.5 0.00 0.00 0.00 28 1017.8
20260503201437 30 218 8.0 11.3 0.00 0.00 0.00 29 1017.8
20260503200935 30 198 4.8 8.0 0.00 0.00 0.00 29 1018.1
20260503200431 29 215 6.4 8.0 0.00 0.00 0.00 30 1018.1
20260503195928 30 250 11.3 12.9 0.00 0.00 0.00 28 1018.0
20260503195426 30 223 8.0 12.9 0.00 0.00 0.00 29 1018.2
20260503194922 30 188 11.3 14.5 0.00 0.00 0.00 30 1018.1
20260503194419 30 185 8.0 14.5 0.00 0.00 0.00 31 1018.4
20260503193914 30 190 3.2 4.8 0.00 0.00 0.00 32 1018.5
20260503193409 30 228 8.0 14.5 0.00 0.00 0.00 31 1018.6
20260503192905 30 172 9.7 11.3 0.00 0.00 0.00 32 1018.6
20260503192401 30 208 3.2 4.8 0.00 0.00 0.00 32 1018.9
20260503191858 30 234 11.3 14.5 0.00 0.00 0.00 32 1018.7
20260503191355 29 149 9.7 11.3 0.00 0.00 0.00 33 1018.7
20260503190851 28 241 11.3 14.5 0.00 0.00 0.00 33 1018.8
20260503190349 30 229 8.0 12.9 0.00 0.00 0.00 31 1019.0
20260503185846 30 232 4.8 16.1 0.00 0.00 0.00 32 1019.0
20260503185343 30 225 11.3 22.5 0.00 0.00 0.00 32 1019.1
20260503184842 29 255 6.4 11.3 0.00 0.00 0.00 33 1019.1
20260503184339 29 184 9.7 12.9 0.00 0.00 0.00 32 1019.2
20260503183834 29 240 12.9 16.1 0.00 0.00 0.00 32 1019.3
20260503183332 29 117 8.0 11.3 0.00 0.00 0.00 34 1019.5
20260503182829 29 232 14.5 17.7 0.00 0.00 0.00 35 1019.5
20260503182328 30 228 11.3 14.5 0.00 0.00 0.00 34 1019.5
20260503181825 30 200 8.0 12.9 0.00 0.00 0.00 36 1019.7
20260503181322 29 164 6.4 9.7 0.00 0.00 0.00 36 1019.7
20260503180818 28 80 6.4 11.3 0.00 0.00 0.00 36 1020.0
20260503180317 29 274 14.5 16.1 0.00 0.00 0.00 37 1019.8
20260503175813 28 245 12.9 16.1 0.00 0.00 0.00 38 1020.2
20260503175311 28 271 8.0 8.0 0.00 0.00 0.00 38 1020.3
20260503174806 28 205 9.7 12.9 0.00 0.00 0.00 39 1020.2
20260503174305 28 221 8.0 11.3 0.00 0.00 0.00 39 1020.2
20260503173800 28 229 3.2 4.8 0.00 0.00 0.00 39 1020.1
20260503173256 28 197 6.4 9.7 0.00 0.00 0.00 39 1020.5
20260503172753 28 181 6.4 9.7 0.00 0.00 0.00 39 1020.7
20260503172250 28 210 11.3 14.5 0.00 0.00 0.00 39 1020.7
20260503171746 27 226 8.0 9.7 0.00 0.00 0.00 40 1020.8
20260503171244 27 165 6.4 9.7 0.00 0.00 0.00 40 1020.6
20260503170741 27 215 3.2 4.8 0.00 0.00 0.00 40 1020.6
20260503170237 28 234 8.0 11.3 0.00 0.00 0.00 39 1020.7
20260503160159 26 235 8.0 14.5 0.00 0.00 0.00 43 1021.3
20260503150629 24 38 4.8 8.0 0.00 0.00 0.00 48 1021.2
20260503150125 23 124 3.2 4.8 0.00 0.00 0.00 49 1021.2
20260503131019 18 88 0.0 1.6 0.00 0.00 0.00 64 1021.0
20260503130516 18 146 4.8 8.0 0.00 0.00 0.00 64 1021.0
20260503110413 13 133 3.2 3.2 0.00 0.00 0.00 74 1019.8
20260503090303 15 95 1.6 1.6 0.00 0.00 0.00 69 1019.9
20260503081231 15 113 1.6 3.2 0.00 0.00 0.00 68 1019.9
20260503080726 15 136 1.6 1.6 0.00 0.00 0.00 67 1020.0
20260503080224 15 138 1.6 1.6 0.00 0.00 0.00 67 1019.7